Weather History for Telfer, WE

Change the Weather History Date:

Monday, February 18, 2013

  Actual Average Record
Temperature  
Mean Temperature 94 °F -  
Max Temperature 106 °F - - ()
Min Temperature 82 °F - - ()
Cooling Degree Days 29    
Growing Degree Days 44 (Base 50)    
Moisture  
Dew Point 66 °F    
Average Humidity 42    
Maximum Humidity 74    
Minimum Humidity 16    
Precipitation  
Precipitation 0.00 in - - ()
Sea Level Pressure  
Sea Level Pressure 29.67 in    
Wind  
Wind Speed 6 mph ()    
Max Wind Speed 14 mph    
Max Gust Speed -    
T = Trace of Precipitation, MM = Missing Value Source: Averaged Metar Reports

Daily Weather History Graph

Daily Weather History Graph

Search for Another Location

Airport:

Trip Planner

Search our weather history database for the weather conditions in past years. The results will help you decide how hot, cold, wet, or windy it might be!

Date:

Astronomy

Feb. 18, 2013 Rise Set
Actual Time 5:42 AM AWST 6:27 PM AWST
Civil Twilight 5:19 AM AWST 6:50 PM AWST
Nautical Twilight 4:52 AM AWST 7:17 PM AWST
Astronomical Twilight 4:25 AM AWST 7:44 PM AWST
Moon 12:37 PM AWST (2/18) 11:51 PM AWST (2/18)
Length of Visible Light 13h 30m
Length of Day
12h 44m
First Quarter, 53% of the Moon is Illuminated
Feb 18
First Quarter
Feb 26
Full
Mar 5
Last Quarter
Mar 12
New
Mar 20
First Quarter

Hourly Weather History & Observations

Time (AWST) Temp. Heat Index Dew Point Humidity Pressure Visibility Wind Dir Wind Speed Gust Speed Precip Events Conditions
12:00 AM 84 °F - 69 °F 53% 29.66 in - NW 6.9 mph - -  
12:00 AM 84.2 °F 88.4 °F 69.8 °F 62% 29.71 in - NW 6.9 mph - N/A   Unknown
1:00 AM 84.2 °F 88.4 °F 69.8 °F 62% 29.68 in - NW 6.9 mph - N/A   Unknown
2:00 AM 83 °F - 73 °F 64% 29.62 in - WNW 5.8 mph - -  
2:00 AM 82.4 °F 88.2 °F 73.4 °F 74% 29.68 in - WNW 5.8 mph - N/A   Unknown
3:00 AM 84 °F - 71 °F 56% 29.61 in - WNW 4.6 mph - -  
3:00 AM 84.2 °F 88.4 °F 69.8 °F 62% 29.68 in - WNW 4.6 mph - N/A   Unknown
4:00 AM 84.2 °F 88.4 °F 69.8 °F 62% 29.68 in - West 5.8 mph - N/A   Unknown
5:00 AM 84 °F - 71 °F 57% 29.64 in - West 5.8 mph - -  
5:00 AM 84.2 °F 89.6 °F 71.6 °F 66% 29.71 in - West 5.8 mph - N/A   Unknown
6:00 AM 83 °F - 71 °F 60% 29.66 in - Calm Calm - -  
6:00 AM 82.4 °F 87.2 °F 71.6 °F 70% 29.71 in - Calm Calm - N/A   Unknown
7:00 AM 84.2 °F 90.9 °F 73.4 °F 70% 29.74 in - NNW 4.6 mph - N/A   Unknown
8:00 AM 86 °F - 72 °F 55% 29.70 in - WSW 3.5 mph - -  
8:00 AM 86.0 °F 91.8 °F 71.6 °F 62% 29.74 in - WSW 3.5 mph - N/A   Unknown
9:00 AM 88 °F - 70 °F 46% 29.70 in - WNW 1.2 mph - -  
9:00 AM 87.8 °F 92.6 °F 69.8 °F 55% 29.77 in - WNW 1.2 mph - N/A   Unknown
10:00 AM 91.4 °F 96.8 °F 69.8 °F 49% 29.77 in - West 4.6 mph - N/A   Unknown
11:00 AM 96 °F - 69 °F 31% 29.68 in - North 4.6 mph - -  
11:00 AM 96.8 °F 101.8 °F 68.0 °F 39% 29.74 in - North 4.6 mph - N/A   Unknown
12:00 PM 100 °F - 66 °F 23% 29.64 in - North 6.9 mph - -  
12:00 PM 100.4 °F 104.9 °F 66.2 °F 33% 29.71 in - North 6.9 mph - N/A   Unknown
1:00 PM 100.4 °F 103.6 °F 64.4 °F 31% 29.68 in - South 5.8 mph - N/A   Unknown
2:00 PM 103 °F - 62 °F 18% 29.59 in - NE 10.4 mph - -  
2:00 PM 102.2 °F 104.2 °F 62.6 °F 27% 29.65 in - NE 10.4 mph - N/A   Unknown
3:00 PM 104 °F - 61 °F 16% 29.57 in - NNE 9.2 mph - -  
3:00 PM 104.0 °F 105.3 °F 60.8 °F 24% 29.62 in - NNE 9.2 mph - N/A   Unknown
4:00 PM 98.6 °F 100.0 °F 62.6 °F 30% 29.62 in - North 13.8 mph - N/A   Unknown
5:00 PM 97 °F - 61 °F 21% 29.57 in - NE 12.7 mph - -  
5:00 PM 96.8 °F 97.1 °F 60.8 °F 30% 29.62 in - NE 12.7 mph - N/A   Unknown
6:00 PM 96 °F - 58 °F 19% 29.58 in - NE 9.2 mph - -  
6:00 PM 96.8 °F 95.8 °F 57.2 °F 27% 29.65 in - NNE 9.2 mph - N/A   Unknown
7:00 PM 93.2 °F 92.6 °F 59.0 °F 32% 29.65 in - North 5.8 mph - N/A   Unknown
8:00 PM 95 °F - 56 °F 18% 29.62 in - WSW 4.6 mph - -  
8:00 PM 95.0 °F 93.0 °F 55.4 °F 26% 29.68 in - WSW 4.6 mph - N/A   Unknown
9:00 PM 95 °F - 57 °F 19% 29.65 in - West 6.9 mph - -  
9:00 PM 95.0 °F 93.7 °F 57.2 °F 28% 29.71 in - West 6.9 mph - N/A   Unknown
10:00 PM 93.2 °F 94.1 °F 62.6 °F 36% 29.68 in - WSW 10.4 mph - N/A   Unknown
11:00 PM 92 °F - 62 °F 27% 29.63 in - WSW 12.7 mph - -  
11:00 PM 91.4 °F 92.1 °F 62.6 °F 38% 29.68 in - WSW 12.7 mph - N/A   Unknown